Preview of NWS' New Version of Forecast
This preview is not operational and should not be used for support decisions.

Regional Weather Roundup (RWR)

Issued by National Weather Service (NWS)

                            
000
ASUS46 KPQR 230110
RWROR 

OREGON REGIONAL WEATHER ROUNDUP
NATIONAL WEATHER SERVICE PORTLAND OR
600 PM PDT WED MAY 22 2019

NOTE: "FAIR" INDICATES FEW OR NO CLOUDS BELOW 12,000 FEET WITH
NO SIGNIFICANT WEATHER AND/OR OBSTRUCTIONS TO VISIBILITY.

ORZ001>013-230200-
NORTHWEST OREGON

  
CITY           SKY/WX    TMP DP  RH WIND       PRES   REMARKS
ASTORIA        CLOUDY    57  50  77 W7        30.05R                  
TILLAMOOK      CLOUDY    57  52  82 NW14      30.07R                  
NEWPORT        CLOUDY    54  52  94 NW8       30.09S FOG              
PORTLAND       LGT RAIN  69  54  58 E12       29.95S                  
VANCOUVER WA   PTSUNNY   74  50  42 NW6       29.95R                  
SCAPPOOSE      MOSUNNY   76  51  41 N12       29.94S                  
HILLSBORO      CLOUDY    72  49  44 CALM      29.95S                  
AURORA         CLOUDY    70  53  54 CALM      29.97S                  
MCMINNVILLE    PTSUNNY   65  55  70 SW12      29.96S                  
SALEM          PTSUNNY   68  52  56 NW9       29.96R                  
CORVALLIS      CLOUDY    63  52  67 NW16      29.99F                  
EUGENE         MOSUNNY   68  53  58 NW9       29.98S                  
$$

ORZ021-028-230200-
SOUTHWEST OREGON

  
CITY           SKY/WX    TMP DP  RH WIND       PRES   REMARKS
NORTH BEND     LGT RAIN  54  54 100 N14       30.09S FOG              
ROSEBURG       MOSUNNY   68  49  50 NW9       29.97S                  
SEXTON SUMMIT  CLOUDY    53  47  79 VRB3      30.00S                  
GRANTS PASS    FAIR      68  46  45 N9        29.98S                  
MEDFORD        PTSUNNY   68  42  38 NW14      29.94F                  
$$

ORZ014>016-041-230200-
COLUMBIA GORGE

  
CITY           SKY/WX    TMP DP  RH WIND       PRES   REMARKS
TROUTDALE      LGT RAIN  64  56  75 E10       29.96S                  
HOOD RIVER     CLOUDY    64  52  63 CALM      29.96R                  
THE DALLES     CLOUDY    68  52  56 NW12      29.93R                  
$$

ORZ029>031-041-044-049-050-061>064-502-503-505>511-230200-
EASTERN OREGON

  
CITY           SKY/WX    TMP DP  RH WIND       PRES   REMARKS
MADRAS         PTSUNNY   59  45  58 N13       29.98R                  
REDMOND        CLOUDY    56  44  64 N9        29.96R                  
BEND           DRIZZLE   54  43  66 N13G20    29.96R                  
PRINEVILLE     CLOUDY    55  43  62 NE9       29.96R                  
KLAMATH FALLS  CLOUDY    54  43  66 NW13      29.92S                  
LAKEVIEW       CLOUDY    47  43  86 N12       29.90S                  
HERMISTON      NOT AVBL                                               
PENDLETON      PTSUNNY   61  51  70 S6        29.89R                  
JOHN DAY       CLOUDY    52  42  67 NW8       29.92R                  
MEACHAM        CLOUDY    54  44  69 CALM      29.93R                  
LA GRANDE      CLOUDY    58  40  51 NW9       29.90R                  
BAKER CITY     CLOUDY    56  43  61 NW18      29.88R                  
BURNS          CLOUDY    52  39  61 N17G28    29.88R                  
ROME             N/A     56  42  59 NE16      29.81R                  
ONTARIO        LGT RAIN  63  47  55 S15       29.82R                  
$$